Hourly Data Report for September 16, 2014

All times are specified in Local Standard Time (LST). Add 1 hour to adjust for Daylight Saving Time where and when it is observed.

Metadata including Station Name, Province, Latitude, Longitude, Elevation, Climate ID, WMO ID, TC ID
MONTREAL MIRABEL INTL A
QUEBEC
Latitude: 45°40'50.000" N Longitude: 74°02'19.000" W Elevation: 82.30 m
Climate ID: 7034900 WMO ID: TC ID: YMX
Hourly Data Report for September 15, 2014
Temp Definition
°C

Dew Point Temp Definition
°C

Rel Hum Definition
%

Wind Dir Definition
10's deg
Wind Spd Definition
km/h

Visibility Definition
km

Stn Press Definition
kPa

Hmdx Definition

Wind Chill Definition

Weather Definition

00:00 Legend Double Dagger 4.2 3.5 95 19 5 40.2 101.38 LegendNANA
01:00 Legend Double Dagger 5.6 4.4 92 27 5 40.2 101.36 Mostly Cloudy
02:00 Legend Double Dagger 5.0 4.0 93 24 4 40.2 101.34 LegendNANA
03:00 Legend Double Dagger 5.2 4.5 95 22 3 40.2 101.32 LegendNANA
04:00 Legend Double Dagger 5.2 4.6 96 29 5 40.2 101.34 Cloudy
05:00 Legend Double Dagger 5.7 5.0 95 36 2 72.4 101.35 LegendNANA
06:00 Legend Double Dagger 5.9 5.3 96 36 3 72.4 101.37 LegendNANA
07:00 Legend Double Dagger 6.8 5.9 94 36 2 72.4 101.36 Mostly Cloudy
08:00 Legend Double Dagger 8.1 7.0 93 21 10 40.2 101.31 LegendNANA
09:00 Legend Double Dagger 10.8 7.5 80 25 9 72.4 101.26 LegendNANA
10:00 Legend Double Dagger 13.0 7.7 70 21 11 72.4 101.20 Mostly Cloudy
11:00 Legend Double Dagger 14.2 8.4 68 20 12 72.4 101.15 LegendNANA
12:00 Legend Double Dagger 14.5 8.1 65 23 12 72.4 101.08 LegendNANA
13:00 Legend Double Dagger 15.3 8.4 63 20 16 72.4 101.01 Mostly Cloudy
14:00 Legend Double Dagger 15.8 8.1 60 22 8 72.4 100.93 LegendNANA
15:00 Legend Double Dagger 16.7 6.9 52 20 14 72.4 100.85 LegendNANA
16:00 Legend Double Dagger 16.0 7.1 55 21 10 72.4 100.81 Cloudy
17:00 Legend Double Dagger 14.9 8.4 65 21 8 72.4 100.80 LegendNANA
18:00 Legend Double Dagger 14.5 7.8 64 22 9 40.2 100.77 LegendNANA
19:00 Legend Double Dagger 13.9 8.6 70 21 10 24.1 100.75 Rain
20:00 Legend Double Dagger 13.0 10.0 82 21 12 40.2 100.74 Rain
21:00 Legend Double Dagger 12.4 10.2 86 24 4 40.2 100.72 Rain
22:00 Legend Double Dagger 11.8 9.9 88 24 6 40.2 100.71 Rain
23:00 Legend Double Dagger 11.3 10.1 92 21 9 40.2 100.63 LegendNANA

Notes on Data Quality.

Legend
  • E = Estimated
  • M = Missing
  • NA = Not Available
  • ‡ = Partner data that is not subject to review by the National Climate Archives